Waarnemingen

Advertentie
Mijn weer
Asturias/Aviles, Spanje (8011): temperatuur & dauwpunt: 14.06.2018 17:00:00 - 20.06.2018 17:00:00 (CEST)Asturias/Aviles, Spanje (8011): windsnelheid: 14.06.2018 17:00:00 - 20.06.2018 17:00:00 (CEST)Asturias/Aviles, Spanje (8011): windrichting: 14.06.2018 17:00:00 - 20.06.2018 17:00:00 (CEST)Asturias/Aviles, Spanje (8011): luchtdruk: 14.06.2018 17:00:00 - 20.06.2018 17:00:00 (CEST)Asturias/Aviles, Spanje (8011): zicht: 14.06.2018 17:00:00 - 20.06.2018 17:00:00 (CEST)
Datum & Tijd tt [°C] td [°C] ff [km/u] ff [kn] dd ppp [hPa] vv [km]
20.06.2018 17:00:00 20,7 18,2 8 4 NNO 1019,3 6
20.06.2018 16:00:00 21,9 18,5 9 5 N 1019,2 -
20.06.2018 15:00:00 21,2 18,9 9 5 N 1019,2 -
20.06.2018 14:00:00 20,8 18,5 8 4 N 1019,3 5
20.06.2018 13:00:00 20,7 18,5 4 2 NNO 1019,5 -
20.06.2018 12:00:00 19,3 18,0 5 3 NNO 1019,7 -
20.06.2018 11:00:00 19,1 18,3 4 2 O 1019,4 4,5
20.06.2018 10:00:00 18,4 17,7 2 1 NNO 1019,2 -
20.06.2018 09:00:00 18,1 17,6 0 0 N 1019,1 -
20.06.2018 08:00:00 17,6 17,1 4 2 ONO 1019,1 3,5
20.06.2018 07:00:00 17,5 17,2 8 4 ZO 1019,0 -
20.06.2018 06:00:00 17,4 16,9 4 2 O 1018,9 -
20.06.2018 05:00:00 17,4 16,9 8 4 OZO 1018,9 -
20.06.2018 04:00:00 17,4 16,9 9 5 OZO 1019,0 -
20.06.2018 03:00:00 17,5 16,9 8 4 OZO 1019,4 -
20.06.2018 02:00:00 17,4 16,8 9 5 OZO 1019,7 10
20.06.2018 01:00:00 17,3 16,8 9 5 OZO 1019,9 -
20.06.2018 00:00:00 17,3 16,7 13 7 OZO 1020,2 -
19.06.2018 23:00:00 17,6 16,5 15 8 OZO 1020,2 10
19.06.2018 22:00:00 17,8 16,2 18 10 OZO 1019,9 -
19.06.2018 21:00:00 18,3 16,3 13 7 O 1020,2 -
19.06.2018 20:00:00 18,7 16,1 18 10 O 1020,4 10
19.06.2018 19:00:00 19,3 16,1 21 11 O 1020,4 -
19.06.2018 18:00:00 19,9 15,9 18 10 O 1020,8 -
19.06.2018 17:00:00 20,2 16,0 15 8 O 1021,2 10
19.06.2018 16:00:00 19,9 15,5 16 9 O 1021,6 -
19.06.2018 15:00:00 21,0 15,8 15 8 O 1021,9 -
19.06.2018 14:00:00 20,3 16,1 16 9 OZO 1022,5 25
19.06.2018 13:00:00 18,7 16,2 15 8 O 1023,3 -
19.06.2018 12:00:00 18,1 16,5 15 8 O 1023,6 -
19.06.2018 11:00:00 - - - - - - -
19.06.2018 10:00:00 17,8 16,4 13 7 O 1024,3 -
19.06.2018 09:00:00 17,0 16,4 15 8 O 1024,4 -
19.06.2018 08:00:00 16,1 15,6 13 7 O 1024,7 9
19.06.2018 07:00:00 15,9 15,6 9 5 O 1024,9 -
19.06.2018 06:00:00 15,8 15,5 15 8 OZO 1024,9 -
19.06.2018 05:00:00 15,8 15,5 13 7 OZO 1025,2 -
19.06.2018 04:00:00 16,0 15,4 8 4 O 1025,5 -
19.06.2018 03:00:00 16,4 15,3 13 7 O 1025,8 -
19.06.2018 02:00:00 16,7 15,7 11 6 O 1026,5 12
19.06.2018 01:00:00 16,9 15,9 9 5 O 1026,7 -
19.06.2018 00:00:00 16,8 15,5 11 6 OZO 1027,0 -
18.06.2018 23:00:00 17,2 15,5 13 7 OZO 1027,1 20
18.06.2018 22:00:00 17,5 15,5 5 3 OZO 1026,9 -
18.06.2018 21:00:00 18,2 16,0 11 6 O 1026,8 -
18.06.2018 20:00:00 19,7 16,5 15 8 OZO 1026,6 20
18.06.2018 19:00:00 18,9 16,7 13 7 O 1027,0 -
18.06.2018 18:00:00 19,3 16,8 11 6 O 1027,2 -
18.06.2018 17:00:00 19,8 17,2 8 4 O 1027,5 20
18.06.2018 16:00:00 19,4 17,2 9 5 N 1027,6 -
18.06.2018 15:00:00 20,2 16,9 9 5 N 1027,6 -
18.06.2018 14:00:00 20,0 16,6 11 6 NNO 1027,3 10
18.06.2018 13:00:00 19,6 16,1 9 5 NNO 1027,4 -
18.06.2018 12:00:00 20,4 15,8 5 3 WNW 1027,5 -
18.06.2018 11:00:00 18,7 15,2 8 4 W 1027,8 10
18.06.2018 10:00:00 17,0 14,5 8 4 ZW 1027,9 -
18.06.2018 09:00:00 15,5 13,3 13 7 ZZW 1027,9 -
18.06.2018 08:00:00 14,2 12,9 13 7 ZW 1027,7 10
18.06.2018 07:00:00 13,4 12,3 13 7 ZW 1027,3 -
18.06.2018 06:00:00 13,5 12,4 13 7 ZZW 1027,2 -
18.06.2018 05:00:00 13,7 12,8 11 6 ZZW 1027,1 -
18.06.2018 04:00:00 13,9 13,1 8 4 ZZW 1027,2 -
18.06.2018 03:00:00 13,2 12,3 2 1 ZW 1027,3 -
18.06.2018 02:00:00 13,4 12,5 0 0 N 1027,4 15
18.06.2018 01:00:00 13,9 12,8 0 0 N 1027,4 -
18.06.2018 00:00:00 14,4 13,3 2 1 WNW 1027,5 -
17.06.2018 23:00:00 14,8 13,0 4 2 NW 1027,3 20
17.06.2018 22:00:00 16,6 13,5 2 1 Z 1026,5 -
17.06.2018 21:00:00 18,7 13,8 8 4 NW 1026,6 -
17.06.2018 20:00:00 19,6 14,2 8 4 NW 1026,2 30
17.06.2018 19:00:00 19,5 14,5 8 4 NNW 1026,2 -
17.06.2018 18:00:00 19,5 14,4 8 4 NNW 1025,9 -
17.06.2018 17:00:00 19,7 15,0 9 5 N 1026,2 28
17.06.2018 16:00:00 19,8 15,0 9 5 N 1025,6 -
17.06.2018 15:00:00 19,5 15,0 9 5 N 1026,0 -
17.06.2018 14:00:00 19,4 14,5 9 5 NNW 1025,9 20
17.06.2018 13:00:00 19,1 14,6 9 5 N 1025,9 -
17.06.2018 12:00:00 19,1 15,0 9 5 N 1025,6 -
17.06.2018 11:00:00 18,7 15,0 8 4 N 1025,7 20
17.06.2018 10:00:00 18,3 15,7 9 5 NW 1025,5 -
17.06.2018 09:00:00 17,4 15,0 8 4 W 1025,2 -
17.06.2018 08:00:00 15,6 14,6 5 3 Z 1025,0 20
17.06.2018 07:00:00 15,0 14,2 5 3 Z 1024,4 -
17.06.2018 06:00:00 15,1 14,3 5 3 WNW 1024,1 -
17.06.2018 05:00:00 15,2 14,4 4 2 ZW 1023,9 -
17.06.2018 04:00:00 15,3 14,7 0 0 N 1024,0 -
17.06.2018 03:00:00 15,2 14,4 0 0 N 1024,2 -
17.06.2018 02:00:00 15,3 14,3 4 2 NNW 1024,4 20
17.06.2018 01:00:00 15,2 13,7 0 0 N 1024,2 -
17.06.2018 00:00:00 14,8 13,3 4 2 NNW 1024,3 -
16.06.2018 23:00:00 15,7 13,5 4 2 WNW 1023,9 -
16.06.2018 22:00:00 16,6 13,7 4 2 WNW 1023,4 -
16.06.2018 21:00:00 17,1 13,6 5 3 NNW 1023,3 -
16.06.2018 20:00:00 18,6 13,5 8 4 NNW 1022,8 -
16.06.2018 19:00:00 18,9 14,2 8 4 NNW 1022,4 -
16.06.2018 18:00:00 19,6 15,0 9 5 NNW 1022,2 -
16.06.2018 17:00:00 20,0 14,6 9 5 N 1021,6 30
16.06.2018 16:00:00 19,9 15,7 13 7 NW 1021,6 -
16.06.2018 15:00:00 19,5 15,1 11 6 NNW 1021,4 -
16.06.2018 14:00:00 18,9 14,7 11 6 N 1021,4 30
16.06.2018 13:00:00 18,9 14,7 9 5 NNW 1021,5 -
16.06.2018 12:00:00 18,6 14,9 11 6 NW 1021,5 -
16.06.2018 11:00:00 16,7 14,4 8 4 NNW 1021,2 25
16.06.2018 10:00:00 17,0 14,7 4 2 W 1020,9 -
16.06.2018 09:00:00 15,3 14,5 8 4 ZW 1020,9 -
16.06.2018 08:00:00 14,2 13,7 5 3 WZW 1020,6 20
16.06.2018 07:00:00 13,9 13,4 8 4 ZW 1020,0 -
16.06.2018 06:00:00 13,9 13,4 5 3 ZW 1019,9 -
16.06.2018 05:00:00 13,9 13,4 5 3 ZW 1020,2 -
16.06.2018 04:00:00 13,9 13,4 4 2 Z 1020,3 -
16.06.2018 03:00:00 13,9 13,4 4 2 Z 1020,4 -
16.06.2018 02:00:00 13,9 13,4 8 4 ZZW 1020,6 8
16.06.2018 01:00:00 13,9 13,3 9 5 ZZW 1020,8 -
16.06.2018 00:00:00 14,0 13,4 5 3 Z 1021,1 -
15.06.2018 23:00:00 14,0 13,5 8 4 ZZO 1021,0 8
15.06.2018 22:00:00 14,2 13,6 8 4 ZZO 1021,3 -
15.06.2018 21:00:00 14,5 13,6 4 2 ZO 1021,7 -
15.06.2018 20:00:00 14,8 14,0 0 0 N 1021,8 6
15.06.2018 19:00:00 15,1 14,5 2 1 NO 1021,6 -
15.06.2018 18:00:00 14,8 14,3 4 2 NNO 1021,8 -
15.06.2018 17:00:00 - - - - - - -
15.06.2018 16:00:00 15,2 14,7 4 2 NNO 1022,0 -
15.06.2018 15:00:00 15,2 14,7 5 3 NNO 1022,1 -
15.06.2018 14:00:00 15,6 14,9 5 3 NNO 1021,9 2,4
15.06.2018 13:00:00 15,9 15,3 8 4 NNO 1021,5 -
15.06.2018 12:00:00 15,4 14,9 8 4 NO 1021,0 -
15.06.2018 11:00:00 15,8 15,3 9 5 N 1020,6 -
15.06.2018 10:00:00 15,6 15,1 8 4 WZW 1020,4 -
15.06.2018 09:00:00 15,3 14,8 8 4 WZW 1020,2 -
15.06.2018 08:00:00 14,9 14,4 4 2 ZW 1020,0 6
15.06.2018 07:00:00 14,7 13,9 5 3 O 1019,7 -
15.06.2018 06:00:00 14,4 13,3 8 4 ZW 1019,5 -
15.06.2018 05:00:00 14,7 13,4 8 4 ZW 1019,5 -
15.06.2018 04:00:00 14,4 13,3 9 5 ZZW 1019,7 -
15.06.2018 03:00:00 14,2 13,2 9 5 ZZW 1019,9 -
15.06.2018 02:00:00 13,7 12,8 11 6 ZZW 1020,6 10
15.06.2018 01:00:00 13,1 12,2 5 3 ZZW 1020,9 -
15.06.2018 00:00:00 13,6 12,5 0 0 N 1021,3 -
14.06.2018 23:00:00 14,3 12,8 4 2 N 1021,0 10
14.06.2018 22:00:00 16,1 12,8 2 1 N 1020,7 -
14.06.2018 21:00:00 18,0 13,3 5 3 NO 1020,6 -
14.06.2018 20:00:00 18,5 13,7 9 5 N 1020,7 12
14.06.2018 19:00:00 18,6 13,5 5 3 NNO 1020,4 -
14.06.2018 18:00:00 18,9 13,7 9 5 N 1020,8 -
14.06.2018 17:00:00 18,9 13,3 11 6 N 1020,6 13

tt = temperatuur
td = dauwpunt
ff = windsnelheid
dd = windrichting
ppp = luchtdruk
vv = zicht

Weerstations in de omgeving